Date,TemperatureHighF,TemperatureAvgF,TemperatureLowF,DewpointHighF,DewpointAvgF,DewpointLowF,HumidityHigh,HumidityAvg,HumidityLow,PressureMaxIn,PressureMinIn,WindSpeedMaxMPH,WindSpeedAvgMPH,GustSpeedMaxMPH,PrecipitationSumIn
2013-7-1,81,74,71,75,72,69,98,92,77,29.95,29.80,3,0,6,0.83
2013-7-2,85,73,62,78,70,61,99,92,73,30.10,29.94,6,1,11,0.02
2013-7-3,92,77,62,76,69,61,96,80,57,30.10,29.99,7,1,13,0.00
2013-7-4,98,84,72,77,74,70,98,74,46,30.07,29.95,7,2,14,0.12
2013-7-5,98,86,74,78,74,72,96,71,47,30.02,29.89,10,2,13,0.19
2013-7-6,92,82,72,76,72,64,95,73,49,29.95,29.85,10,2,13,0.41
2013-7-7,96,80,67,78,71,65,94,74,49,29.90,29.77,6,1,9,0.19
2013-7-8,91,78,68,77,72,66,94,84,59,29.95,29.78,7,2,10,0.24
2013-7-9,75,70,66,70,67,64,94,90,82,29.99,29.93,3,1,6,0.00
2013-7-10,84,73,67,78,71,65,97,93,76,29.96,29.66,3,0,7,0.60
2013-7-11,87,76,70,77,73,68,99,92,66,29.81,29.64,5,0,11,0.13
2013-7-12,84,74,65,67,63,58,96,72,43,30.09,29.82,7,2,14,0.00
2013-7-13,84,73,65,73,67,61,95,81,64,30.19,30.09,4,1,8,0.00
2013-7-14,94,81,70,79,73,69,97,80,48,30.18,30.08,6,1,10,0.19
2013-7-15,97,82,69,78,72,68,98,77,45,30.08,29.96,6,1,11,0.49
2013-7-16,99,82,67,76,71,66,98,73,39,30.04,29.98,7,2,13,0.48
2013-7-17,100,84,70,76,72,69,98,71,39,30.05,29.84,7,1,12,0.58
2013-7-18,100,84,74,81,74,71,96,74,43,29.88,29.80,5,1,9,0.56
2013-7-19,100,86,72,78,74,71,98,71,42,29.81,29.57,10,2,16,0.59
2013-7-20,96,83,73,77,70,64,88,67,47,29.68,29.52,8,1,16,0.47
2013-7-21,87,76,65,73,67,63,97,76,51,29.87,29.69,6,1,10,0.21
2013-7-22,88,74,67,75,69,65,96,84,58,29.91,29.78,8,2,11,0.00
2013-7-23,80,72,68,76,70,67,98,94,85,29.77,29.42,6,1,6,0.39
2013-7-24,89,77,64,73,67,53,99,74,50,29.86,29.46,10,2,15,0.00
2013-7-25,70,63,59,61,55,49,95,76,60,30.00,29.87,7,2,12,0.01
2013-7-26,74,66,62,71,64,60,97,92,83,29.96,29.82,6,2,14,0.07
2013-7-27,90,74,58,69,63,57,99,73,38,29.93,29.86,8,1,10,0.00
2013-7-28,87,72,64,74,68,63,96,85,62,29.90,29.85,7,1,10,0.34
2013-7-29,91,74,67,74,69,66,98,86,49,29.92,29.83,5,1,10,0.52
2013-7-30,88,72,60,68,62,55,97,75,38,29.98,29.91,8,1,11,0.51
2013-7-31,88,73,59,70,63,58,98,75,39,30.02,29.91,6,1,8,0.53